User: anonymous   Login
Location: Unspecified
(48.5670°N, 0.0000°E)
Time: 06:02:01
(UTC+00:00)
Language:

Vanguard 2 Rocket - Orbit

View from above orbital plane
View from above orbital plane
View from above satellite
View from above satellite

Ground track
Ground track

The orbit data is extracted from the following two-line orbital elements,

1    12U 59001B   19291.49683247 +.00000127 +00000-0 +52870-4 0  9999
2    12 032.9083 120.9814 1666884 238.6345 104.0552 11.44309896252141
Epoch (UTC): 18 October 2019 11:55:26
Eccentricity: 0.1666884
inclination: 32.9083°
perigee height: 553 km
apogee height: 3327 km
right ascension of ascending node: 120.9814°
argument of perigee: 238.6345°
revolutions per day: 11.44309896
mean anomaly at epoch: 104.0552°
orbit number at epoch: 25214

The dashed part of the orbit path shows where the satellite is in the earth's shadow,  

DLR